Regional Weather Roundup
Issued by NWS

Home | Current Version | Previous Version | Text Only | Print | Product List | Glossary Off
Versions: 1 2 3 4 5 6 7 8 9 10 11 12 13 14 15 16 17 18 19 20 21 22 23 24 25 26 27 28 29 30 31 32 33 34 35 36 37 38 39 40 41 42 43 44 45 46 47 48 49 50

000
ASUS43 KFSD 241702
RWRSD

WEATHER ROUNDUP FOR SOUTH DAKOTA
NATIONAL WEATHER SERVICE SIOUX FALLS SD
1200 PM CDT MON JUL 24 2017

NOTE: "FAIR" INDICATES FEW OR NO CLOUDS BELOW 12,000 FEET WITH NO
SIGNIFICANT WEATHER AND/OR OBSTRUCTIONS TO VISIBILITY.


SDZ001>005-009-010-012>017-241800-
NORTHWEST AND NORTH CENTRAL SOUTH DAKOTA

CITY           SKY/WX    TMP DP  RH WIND       PRES   REMARKS
BUFFALO          N/A     84  61  45 S10       29.80F
FAITH            N/A     83  60  45 E8        29.86S
MOBRIDGE       TSTM      72  65  78 SE15      29.83F
$$

SDZ012>016-024>037-041>051-057-063-072>074-241800-
SOUTHWEST AND SOUTH CENTRAL SOUTH DAKOTA

CITY           SKY/WX    TMP DP  RH WIND       PRES   REMARKS
RAPID CTY ARPT SUNNY     86  54  33 S7        29.86F
PIERRE         PTSUNNY   85  58  39 S15       29.84R
CUSTER         SUNNY     88  45  22 W9G17     30.03S
ELLSWORTH AFB  SUNNY     86  54  33 SW3       29.86F
PHILIP         PTSUNNY   88  61  40 S14       29.81F
PINE RIDGE     SUNNY     92  62  36 SW22      29.88F
SPEARFISH      FAIR      86  57  37 VRB6      29.92R
WINNER         FAIR      89  61  38 S18G28    29.88F
$$

SDZ004>011-016>023-039-040-241800-
NORTHEAST SOUTH DAKOTA

CITY           SKY/WX    TMP DP  RH WIND       PRES   REMARKS
ABERDEEN       PTSUNNY   76  65  68 S15       29.93F
WATERTOWN      FAIR      74  63  68 SE13      29.97F
BROOKINGS      FAIR      74  62  66 S14       30.00F
SISSETON         N/A     78  64  61 SE12      29.96F
$$

SDZ017-020-022-023-036>040-048>070-241800-
SOUTHEAST SOUTH DAKOTA

CITY           SKY/WX    TMP DP  RH WIND       PRES   REMARKS
SIOUX FALLS    FAIR      77  64  64 S12       30.00F
HURON          MOSUNNY   79  63  57 SE16G23   29.91F
CHAMBERLAIN    MOSUNNY   87  66  49 SE25G33   29.86F
MITCHELL       SUNNY     80  63  55 SE20G25   29.94F
YANKTON        FAIR      79  63  57 SE13      29.99F
$$

ABBREVIATIONS USED IN REMARKS
   TC - TEMPERATURE IN CELSIUS
  WCI - WIND CHILL INDEX
   HX - HEAT INDEX
  VSB - VISIBILITY




USA.gov is the U.S. government's official web portal to all federal, state and local government web resources and services.